TimeMDT,TemperatureF,Dew PointF,Humidity,Sea Level PressureIn,VisibilityMPH,Wind Direction,Wind SpeedMPH,Gust SpeedMPH,PrecipitationIn,Events,Conditions,WindDirDegrees,DateUTC
12:56 AM,3.9,1.0,88,30.01,-9999.0,Calm,Calm,-,N/A,,Unknown,0,2014-04-01 06:56:00
1:56 AM,1.9,-2.0,83,29.99,-9999.0,Calm,Calm,-,N/A,,Unknown,0,2014-04-01 07:56:00
2:56 AM,1.0,-4.0,79,29.96,-9999.0,Calm,Calm,-,N/A,,Unknown,0,2014-04-01 08:56:00
3:56 AM,-0.9,-5.1,83,29.97,-9999.0,Calm,Calm,-,N/A,,Unknown,0,2014-04-01 09:56:00
4:56 AM,-2.0,-6.0,83,29.95,-9999.0,Calm,Calm,-,N/A,,Unknown,0,2014-04-01 10:56:00
5:56 AM,-2.0,-4.0,91,29.95,-9999.0,Calm,Calm,-,N/A,,Unknown,0,2014-04-01 11:56:00
6:56 AM,-5.1,-9.0,83,29.96,-9999.0,Calm,Calm,-,N/A,,Unknown,0,2014-04-01 12:56:00
7:56 AM,-2.9,-7.1,82,29.96,-9999.0,Calm,Calm,-,N/A,,Unknown,0,2014-04-01 13:56:00
8:56 AM,-0.9,-0.9,100,29.97,-9999.0,Calm,Calm,-,N/A,,Unknown,0,2014-04-01 14:56:00
9:56 AM,3.0,3.0,100,29.97,-9999.0,Calm,Calm,-,N/A,,Unknown,0,2014-04-01 15:56:00
10:56 AM,14.0,9.0,80,29.73,-9999.0,Calm,Calm,-,N/A,,Unknown,0,2014-04-01 16:56:00
11:56 AM,19.0,10.9,71,29.91,-9999.0,Calm,Calm,-,N/A,,Unknown,0,2014-04-01 17:56:00
12:56 PM,21.9,14.0,72,29.89,-9999.0,ESE,3.5,-,N/A,,Unknown,110,2014-04-01 18:56:00
1:56 PM,32.0,10.9,42,29.83,-9999.0,Calm,Calm,-,0.01,,Unknown,0,2014-04-01 19:56:00
2:56 PM,33.1,14.0,46,29.83,-9999.0,Calm,Calm,-,N/A,,Unknown,0,2014-04-01 20:56:00
3:56 PM,33.1,14.0,46,29.83,-9999.0,Calm,Calm,-,N/A,,Unknown,0,2014-04-01 21:56:00
4:56 PM,33.1,14.0,46,29.82,-9999.0,ESE,3.5,-,N/A,,Unknown,120,2014-04-01 22:56:00
5:56 PM,34.0,15.1,46,29.82,-9999.0,Calm,Calm,-,N/A,,Unknown,0,2014-04-01 23:56:00
6:56 PM,28.9,21.0,72,29.88,-9999.0,Calm,Calm,-,N/A,,Unknown,0,2014-04-02 00:56:00
7:56 PM,24.1,21.0,88,29.89,-9999.0,Calm,Calm,-,N/A,,Unknown,0,2014-04-02 01:56:00
8:56 PM,24.1,21.9,91,29.89,-9999.0,Calm,Calm,-,N/A,,Unknown,0,2014-04-02 02:56:00
9:56 PM,24.1,21.9,91,29.86,-9999.0,Calm,Calm,-,N/A,,Unknown,0,2014-04-02 03:56:00
10:56 PM,24.1,21.9,91,29.79,-9999.0,Calm,Calm,-,N/A,,Unknown,0,2014-04-02 04:56:00
11:56 PM,25.0,23.0,92,29.76,-9999.0,Variable,3.5,-,0.01,,Unknown,0,2014-04-02 05:56:00